Simultaneous Nadir Overpasses (SNOs) Predictions

Prediction of SNOs between AQUA and NOAA-19 Satellite Orbit:

Table of predicted SNOs for the next 14.0 days since TLE Epoch: 4/20/2018
Index Date (AQUA) Time (AQUA) Lat,Lon (AQUA) SZA (AQUA ) Date (NOAA-19) Time (NOAA-19) Lat,Lon (NOAA-19) SZA (NOAA-19 ) Distance(km) Time Diff (sec)
1 04/22/2018 01:09:07 80.84, 124.05 70.73 04/22/2018 01:08:31 80.83, 124.15 70.72 2.20 36
2 04/22/2018 01:58:33 -80.84, -68.29 109.29 04/22/2018 01:59:28 -80.84, -68.32 109.32 0.67 55
3 04/24/2018 06:42:48 -80.83,-139.18 110.06 04/24/2018 06:42:06 -80.83,-139.28 110.03 1.77 42
4 04/24/2018 07:32:15 80.83, 28.45 69.93 04/24/2018 07:33:08 80.83, 28.30 69.93 2.86 53
5 04/26/2018 12:16:30 80.81, -42.46 69.19 04/26/2018 12:15:45 80.83, -42.53 69.23 2.19 45
6 04/26/2018 13:05:57 -80.84, 124.86 110.78 04/26/2018 13:06:44 -80.83, 124.69 110.79 3.18 47
7 04/28/2018 17:50:12 -80.83, 53.92 111.50 04/28/2018 17:49:21 -80.83, 54.05 111.49 2.40 51
8 04/28/2018 18:39:39 80.83,-138.45 68.50 04/28/2018 18:40:22 80.83,-138.44 68.48 0.43 43
9 04/30/2018 23:23:54 80.82, 150.59 67.80 04/30/2018 23:22:59 80.83, 150.68 67.82 1.69 55
10 05/01/2018 00:13:20 -80.82, -41.76 112.22 05/01/2018 00:13:58 -80.83, -41.66 112.23 2.40 38
11 05/03/2018 04:57:35 -80.81,-112.75 112.89 05/03/2018 04:56:36 -80.83,-112.71 112.86 1.41 59




NCC Satellite Simultaneous Nadir Overpasses (SNOs) Prediction Service
